Location: Hermaringen
(48.5952°N, 10.2585°E)
Time: 22:56:04
(UTC+00:00)

Altair - Pass Details

Date: 22 February 2026
Orbit: 1502 x 1682 km, 47.2° (Epoch: 10 March)

Event Time Altitude Azimuth Distance (km) Brightness Sun altitude
Exits shadow 05:27:27 - 264° (W) 3,773 8.9 -8.4°
Reaches altitude 10° 05:27:46 10° 264° (W) 3,670 8.8 -8.4°
Maximum altitude 05:37:02 84° 179° (S) 1,554 7.6 -6.9°
Drops below altitude 10° 05:46:38 10° 93° (E) 3,789 11.4 -5.3°
Sets 05:49:46 0° 93° (E) 4,798 12.6 -4.8°
